Weather in Spasskoye-Gorodishche

Russia / Vladimir Oblast     56°21′50″N   40°31′51″E
temp.,
°C
wind,
m/s
gust,
m/s
humid.,
%
clouds,
%
prec.,
mm/h
press.,
hPa
HPBL,
m
3 march, wed
wed300:00−2nnw6119393 0.1 1008564
03:00−6nw6139060 0.1 1010414
06:00−8nw6149247 0.0 1011412
09:00−7nw6139269 0.0 1013498
12:00−4nw5108561 0.0 1012798
15:00−2wnw598880 0.1 1011909
18:00−1w51292100 0.3 1009615
21:00−3w51292100 0.3 1008480
4 march, thu
thu400:00−2wsw61292100 0.1 1004686
03:00−1wsw71495100 0.6 1002730
06:00+1w81597100 0.8 997914
09:00+1w81586100 1.3 9971177
12:00−1wnw7137566 0.3 9981021
15:00−2wnw6108355 0.3 999860
18:00−4nw3889100 0.0 999296
21:00−7nw3390100 0.0 100172
5 march, fri
fri500:00−9nnw2395100 0.0 100149
03:00−11nnw239694 0.0 100330
06:00−13nnw22959 0.0 100420
09:00−11nw12944 0.0 100567
12:00−7w228725 0.0 1006259
15:00−5w239062 0.1 1007318
18:00−8wnw129478 0.1 100821
21:00−10wnw479247 0.1 1010139
6 march, sat
sat600:00−11wnw239670 0.0 101246
03:00−13nw359569 0.0 1013101
06:00−14nw389653 0.0 1014170
09:00−16nnw379447 0.0 1015224
12:00−13nw358922 0.0 1016321
15:00−10wnw368538 0.0 1015735
18:00−13w339190 0.0 101554
21:00−12wsw369384 0.1 1014128
7 march, sun
sun700:00−14sw479268 0.0 1012128
03:00−13ssw5119238 0.0 1009240
06:00−10ssw7159298 0.1 1004677
09:00−7ssw9159299 0.8 9981060
12:00−4sw91591100 1.0 9941115
15:00−7nnw91493100 3.1 992660
18:00−9wsw2382100 0.3 99225
21:00−9ssw51293100 0.4 994606